User: anonymous   Login
Location: Mentone
(34.5413°N, 85.5351°W)
Time: 14:51:59
(UTC-05:00)
Language:

Uosat F - Orbit

View from above orbital plane
View from above orbital plane
View from above satellite
View from above satellite

Ground track
Ground track

The orbit data is extracted from the following two-line orbital elements,

1 21575U 91050B   16242.12695952  .00000035  00000-0  25368-4 0  9995
2 21575  98.7632 245.4587 0008474  89.5121 270.7038 14.40755002319223
Epoch (UTC): 29 August 2016 03:02:49
Eccentricity: 0.0008474
inclination: 98.7632°
perigee height: 750 km
apogee height: 762 km
right ascension of ascending node: 245.4587°
argument of perigee: 89.5121°
revolutions per day: 14.40755002
mean anomaly at epoch: 270.7038°
orbit number at epoch: 31922

The dashed part of the orbit path shows where the satellite is in the earth's shadow,  

DLR